This is the latest recevied weather packets stored in our database for station/object AA5QJ. If no packets are shown the sender has not sent any weather packets the latest 1 day(s).
| Time | Temp. | Humidity | Pressure | Rain* | Wind** | Luminosity | Snow |
|---|---|---|---|---|---|---|---|
| 1778004474 | 11.11° C | 45% | 1009.9 hPa | 0 mm | 0 m/s | - | - |
| 1778004176 | 11.67° C | 45% | 1009.9 hPa | 0 mm | 0.45 m/s, 136° | - | - |
| 1778003875 | 11.67° C | 45% | 1009.9 hPa | 0 mm | 0.45 m/s, 281° | - | - |
| 1778003575 | 11.11° C | 46% | 1009.5 hPa | 0 mm | 0.45 m/s, 298° | - | - |
| 1778003274 | 11.11° C | 46% | 1009.9 hPa | 0 mm | 0 m/s | - | - |
| 1778002974 | 9.44° C | 47% | 1009.9 hPa | 0 mm | 1.79 m/s, 276° | - | - |
| 1778002674 | 9.44° C | 48% | 1009.9 hPa | 0 mm | 1.34 m/s, 239° | - | - |
| 1778002374 | 9.44° C | 49% | 1009.9 hPa | 0 mm | 0 m/s | - | - |
| 1778002074 | 9.44° C | 49% | 1009.9 hPa | 0 mm | 0.89 m/s, 318° | - | - |
| 1778001775 | 9.44° C | 48% | 1009.9 hPa | 0 mm | 3.13 m/s, 59° | - | - |
| 1778001475 | 9.44° C | 48% | 1009.9 hPa | 0 mm | 1.79 m/s, 165° | - | - |
| 1778001175 | 10° C | 49% | 1009.9 hPa | 0 mm | 1.79 m/s, 193° | - | - |
| 1778000875 | 10° C | 49% | 1009.9 hPa | 0 mm | 0.89 m/s, 53° | - | - |
| 1778000575 | 10° C | 50% | 1009.9 hPa | 0 mm | 0.89 m/s, 121° | - | - |
| 1778000274 | 10° C | 51% | 1009.9 hPa | 0 mm | 1.34 m/s, 176° | - | - |
| 1777999974 | 9.44° C | 52% | 1009.9 hPa | 0 mm | 1.34 m/s, 94° | - | - |
| 1777999675 | 9.44° C | 52% | 1010.2 hPa | 0 mm | 1.79 m/s, 142° | - | - |
| 1777999375 | 9.44° C | 53% | 1010.2 hPa | 0 mm | 1.34 m/s, 49° | - | - |
| 1777999076 | 9.44° C | 53% | 1010.2 hPa | 0 mm | 1.79 m/s, 117° | - | - |
| 1777998774 | 9.44° C | 53% | 1010.2 hPa | 0 mm | 1.34 m/s, 165° | - | - |
| 1777998474 | 9.44° C | 54% | 1009.9 hPa | 0 mm | 0.89 m/s, 72° | - | - |
| 1777998174 | 9.44° C | 54% | 1010.2 hPa | 0 mm | 0.89 m/s, 48° | - | - |
| 1777997876 | 8.33° C | 55% | 1010.2 hPa | 0 mm | 1.34 m/s, 84° | - | - |
| 1777997575 | -8.33° C | 54% | 1010.2 hPa | 0 mm | 0.89 m/s, 98° | - | - |
| 1777997275 | 1.67° C | 55% | 1010.2 hPa | 0 mm | 0.45 m/s, 13° | - | - |
* Rain latest hour (hover to see other rain measurements)
** Current wind speed in m/s (hover to see current wind gust speed)